Location: *
(45.5667°S, 177.5167°W)
Time: 05:15:11
(UTC+00:00)

Cosmos 1933 - Pass Details

Date: 29 May 2022
Orbit: 544 x 561 km, 82.5° (Epoch: 24 June)

Event Time Altitude Azimuth Distance (km) Brightness Sun altitude
Rises 05:02:51 0° 185° (S) 2,763 6.7 -7.9°
Reaches altitude 10° 05:05:05 10° 180° (S) 1,862 5.8 -8.2°
Maximum altitude 05:09:07 54° 102° (ESE) 687 3.5 -8.9°
Drops below altitude 10° 05:13:06 10° 23° (NNE) 1,844 6.0 -9.5°
Sets 05:15:18 0° 18° (NNE) 2,733 6.9 -9.9°
